User: anonymous   Login
Location: Unspecified
(0.0000°N, 0.0000°E)
Time: 14:13:22
(UTC+01:00)
Language:

Gurwin Techsat 1B - Orbit

View from above orbital plane
View from above orbital plane
View from above satellite
View from above satellite

Ground track
Ground track

The orbit data is extracted from the following two-line orbital elements,

1 25397U 98043D   17020.95116650 -.00000009  00000-0  15138-4 0  9995
2 25397  98.5944 326.5183 0002357  77.3555 282.7887 14.23613246962847
Epoch (UTC): 20 January 2017 22:49:40
Eccentricity: 0.0002357
inclination: 98.5944°
perigee height: 811 km
apogee height: 815 km
right ascension of ascending node: 326.5183°
argument of perigee: 77.3555°
revolutions per day: 14.23613246
mean anomaly at epoch: 282.7887°
orbit number at epoch: 96284

The dashed part of the orbit path shows where the satellite is in the earth's shadow,  

DLR